Showing default

YUNHAI 1, 41857

Orbit data source: Space-Track

YUNHAI 1, 41857 is a payload satellite owned by SAST (CN) in SSO that was launched on Fri, 11 Nov 2016 UTC via a CHANG ZHENG 2D launch vehicle from the Jiuquan Satellite Launch Center, China (JSC). Payload-class satellites include a variety of spacecraft equipped with specific instruments for various scientific and technological missions. These include communications satellites like Starlink; space stations such as the ISS; scientific satellites like the Hubble; Earth observation satellites from companies like Planet Labs, Umbra, and HawkEye 360; GPS; miniature CubeSats for education and research; and military/defense satellites.

Loading next visibility...
Identifier
41857, 2016-068A
Orbit
SSO
Last TLE update
7 hours ago
Origin
Manufacturer
SAST
Mission
Operational Defense Weather
Bus & Motor
YUNHAI-1, Unknown motor
Mass
~800 kg wet, ~800 kg dry
Launch date (UTC)
2016-11-11 (9 years ago)
Launch vehicle
CHANG ZHENG 2D
Launch site
Jiuquan Satellite Launch Center, China (JSC)
Object type
Payload
Rocket body
Debris
Shape & HBR
Box + 2 Pan, 4 m
Radar Cross Section
5.141 m², Large (>1 m²)

Expand to show TLE details & history

TLE from 7 hours ago
0 YUNHAI 1
1 41857U 16068A   25182.15119930  .00000311  00000-0  13020-3 0  9997
2 41857  98.5892 191.2979 0006799 343.4474  16.6487 14.32800529451563
Epoch: 2025-07-01T03:37Z
TLE epoch observation values (Epoch: 2025-07-01T03:37:43.619Z)
Latitude
-0.00002°
Longitude
-142.58461°
Altitude
780.656 km
Speed
7.466 km/s
True Right ascension
12h 45m 11s
True Declination
0° 00' 00"
Sunlit
Object was in daylight at epoch
Visualization orbit readout
Latitude
-34.22277°
Longitude
-136.4491°
Altitude
790.621 km
Speed
7.46 km/s
Apparent Right ascension
11h 39m 29s
Apparent Declination
-39° 27' 55"
Sunlit
Object is in daylight
Visualization observer readout
Local Sidereal Time
21:48:44
Azimuth
262.244° W
Elevation
-68.775°
Doppler factor
1
Orbital elements
Apogee altitude
784.387 km
Perigee altitude
774.654 km
Semi-major axis
7,157.658 km
Eccentricity
0.00068
Inclination
98.5892°
RAAN
191.2979°
Arg. of periapsis
343.4474°
True anomaly
Unknown
Mean anomaly
16.6487°
Eccentric anomaly
Unknown
Mean motion
3.58415 °/min
Orbital period
100.44 mins
BSTAR
0.0001302
Loading maneuver chart data...
Loading SW <> Apogee altitude chart data...
Loading historical data...
Loading historical data...
Loading historical data...
Loading historical data...
Loading historical data...
Loading historical data...
Loading historical data...

YUNHAI 1 Visibility forecast

Observer location: undefined°, undefined°

Span
Click to sort rows by Start time (UTC) header in descending order
Start Az.
Max El. time (UTC)
Max El. Az.
Max El.
End time (UTC)
End Az.
7 mins2025-07-01 12:36:20.224Z43.61° NE2025-07-01 12:40:20.224Z101.964° ESE23.603°2025-07-01 12:43:20.224Z144.37° SSE
7 mins2025-07-01 14:16:20.224Z345.158° N2025-07-01 14:19:20.224Z291.154° WNW30.567°2025-07-01 14:23:20.224Z229.571° WSW
7 mins2025-07-01 23:53:20.224Z123.559° SE2025-07-01 23:56:20.224Z70.377° E30.416°2025-07-02 00:00:20.224Z7.792° NNE
6 mins2025-07-02 01:33:20.224Z225.291° WSW2025-07-02 01:35:20.224Z256.876° W23.383°2025-07-02 01:39:20.224Z315.959° NNW
|